Dewpoint
30 22 16 21 23 20 21 21 21 23 27 26 25 25 26 24 23 24 22 18 17 16 21 23 24 22 21 21 21 23 26 27 27 28 28 28 28 27 28 30 32 33 37 39
24 19 25 24 24 24 23 22 20 24 27 26 25 25 25 24 23 23 21 18 18 19 17 20 22 25 23 23 23 22 24 27 28 31 31 29 26 28 31 34 33 33 35 38
21 26 26 25 25 24 24 21 19 21 27 25 25 24 24 23 22 21 20 20 20 21 19 19 21 23 26 25 27 26 26 26 28 31 32 31 30 30 29 30 31 33 34 35
25 26 25 25 23 24 21 24 25 25 24 19 22 6 24 22 21 20 19 19 18 19 18 19 21 24 25 27 30 28 27 26 27 30 31 31 31 30 30 31 32 33 32 33
24 25 26 25 24 27 26 26 25 25 22 21 22 18 19 22 19 18 17 16 17 17 17 18 19 23 21 29 30 31 30 26 28 27 31 32 33 32 31 31 32 32 33 33
26 29 25 26 28 26 24 22 24 26 23 18 16 19 13 18 17 17 15 15 17 17 18 19 20 23 24 30 34 34 30 27 28 29 27 30 30 29 30 32 32 31 31 32
25 25 22 25 23 24 21 18 12 14 19 13 21 21 16 23 17 16 14 15 17 18 18 19 20 23 25 30 30 28 27 26 23 24 26 27 30 29 30 30 30 31 31 32
16 19 22 19 22 18 20 18 9 6 4 6 22 16 15 16 18 15 16 17 20 20 20 21 22 25 26 26 26 26 24 24 24 25 25 25 26 28 29 30 31 31 31 32
10 10 15 15 18 19 18 15 23 10 12 7 8 10 14 15 15 15 16 19 21 21 21 22 23 25 25 25 24 24 24 23 24 23 23 22 23 26 29 30 30 32 31 31
11 1 10 14 16 19 18 19 14 14 5 4 3 7 6 15 15 16 17 19 21 22 21 22 23 25 24 23 24 24 21 21 23 23 23 24 25 26 28 28 29 31 31 32
13 6 6 12 15 13 17 15 15 15 12 6 5 6 9 10 13 15 16 18 20 21 22 22 23 23 24 24 23 22 22 22 22 23 26 26 27 27 28 28 29 31 31 29
15 8 2 0 10 15 13 9 12 11 11 12 16 14 12 13 14 16 16 18 20 23 25 24 24 23 22 23 21 20 20 22 25 27 27 27 28 28 28 29 29 29 30 30
17 10 9 9 17 17 13 14 11 16 20 20 13 11 12 16 16 17 17 17 20 22 23 23 22 23 22 19 17 19 23 25 26 27 27 28 28 28 28 28 29 29 29 30
21 13 11 13 15 16 15 17 15 12 21 12 13 10 11 14 15 15 16 19 19 20 23 24 25 24 20 18 19 21 23 26 28 28 28 29 28 29 29 30 29 29 28 28
21 14 12 11 12 10 8 9 14 14 11 11 12 10 10 11 14 16 16 19 21 21 22 24 25 21 18 19 20 24 27 28 28 28 28 29 29 29 30 30 30 30 29 28
24 18 20 14 17 18 16 16 16 14 13 13 12 14 16 16 17 16 17 20 21 21 23 24 23 20 20 21 24 27 28 28 29 29 30 32 34 34 33 32 31 31 31 30
21 21 19 17 12 12 12 13 13 14 16 14 13 16 19 18 19 19 21 22 22 23 24 24 20 21 22 25 27 27 28 30 30 30 30 31 33 33 35 35 34 32 33 32
21 18 19 21 15 19 16 15 15 14 16 20 19 21 22 22 24 23 23 23 23 25 25 22 21 23 26 27 28 29 30 30 30 30 31 33 32 34 36 38 37 36 36 35
24 20 19 21 17 16 17 17 17 16 14 19 21 21 21 23 25 21 24 24 26 26 23 23 24 26 27 28 28 30 30 30 30 30 32 32 33 35 37 39 39 39 39 35
23 22 18 17 22 23 18 19 20 21 17 20 21 20 20 23 19 19 24 26 26 24 24 25 26 27 27 28 29 29 30 31 30 30 32 33 35 38 37 39 39 39 37 36
20 22 24 23 24 21 20 20 22 17 24 21 21 20 22 24 22 26 28 27 26 25 26 27 27 27 28 29 29 30 29 31 32 33 34 35 38 38 39 39 39 39 37 38
25 27 23 21 24 21 23 22 20 23 25 24 23 23 26 26 28 30 28 27 26 26 26 26 27 27 28 28 28 30 31 33 34 35 36 36 38 38 40 39 38 36 33 33
21 21 26 25 26 25 24 23 25 28 25 25 26 26 28 29 29 28 28 26 25 25 26 26 27 27 27 28 28 31 33 34 35 35 35 37 39 39 39 39 38 36 32 33
21 22 23 24 23 22 23 24 25 26 27 27 27 28 30 29 27 27 26 25 25 25 26 26 26 26 27 29 29 31 33 35 34 35 35 37 38 39 39 39 39 38 35 36
22 21 21 21 22 24 25 26 27 27 27 27 27 29 31 29 28 27 25 25 25 25 27 25 26 28 28 30 31 32 34 36 34 35 35 36 38 38 38 38 39 38 37 37
23 22 22 23 21 24 24 25 25 25 25 25 28 29 29 29 28 27 25 25 25 26 26 25 27 29 30 31 31 31 35 34 33 34 35 37 37 37 38 38 39 41 41 41
Lifted_Index
6 5 5 6 6 6 6 5 5 6 7 7 6 7 8 10 11 11 12 12 13 14 15 16 17 17 17 17 17 17 17 17 17 17 17 17 17 16 16 16 15 14 13 13
5 5 6 6 6 6 6 5 5 6 7 7 6 6 7 9 10 11 12 13 13 14 15 16 17 17 17 17 17 17 17 17 17 16 16 16 16 16 16 15 15 15 14 13
5 6 6 6 6 6 6 5 5 6 6 6 6 5 5 7 9 11 12 13 14 14 15 16 16 16 17 17 17 17 17 17 17 16 16 16 16 16 15 15 14 14 13 13
6 6 6 6 6 6 6 6 6 6 5 5 5 4 4 6 7 9 11 13 14 15 15 16 16 16 17 16 16 16 16 16 16 16 16 16 15 15 15 14 14 13 13 12
6 6 6 6 7 7 7 7 7 6 5 4 4 3 4 5 6 8 10 12 14 15 15 16 16 16 16 16 16 16 16 16 16 15 15 15 15 14 14 13 13 13 12 12
6 7 7 7 8 8 8 7 6 5 4 3 3 4 4 5 7 8 10 11 13 14 15 15 16 16 16 15 15 15 15 15 15 15 15 15 14 14 13 13 12 12 12 11
5 6 8 8 8 8 7 6 4 2 2 2 4 4 4 6 7 9 10 11 12 13 14 14 14 15 15 15 15 15 15 15 15 15 15 14 14 13 13 12 11 11 11 10
4 5 7 8 8 7 6 5 4 2 1 3 4 4 5 7 8 9 10 11 12 12 13 13 14 14 14 14 15 15 15 15 15 15 14 14 13 13 12 11 11 10 10 10
4 4 6 8 8 8 7 6 5 3 2 2 3 4 5 7 8 9 10 11 12 12 12 13 13 14 14 14 15 15 15 15 14 14 14 13 13 12 12 11 11 10 10 10
5 5 6 7 8 8 7 6 6 5 3 2 3 4 5 7 8 9 10 11 12 12 12 13 13 14 14 14 14 14 14 14 14 14 13 13 12 12 11 11 11 10 10 9
6 5 5 6 7 7 7 6 6 5 4 3 3 4 6 7 8 9 10 11 12 12 12 13 13 13 14 14 14 14 14 14 13 13 13 13 12 12 11 11 10 9 9 9
7 6 5 5 6 7 7 6 6 5 5 4 4 4 6 8 9 10 10 11 12 12 12 12 12 13 13 13 14 14 14 13 13 13 13 13 12 12 11 10 10 9 8 8
8 6 4 4 6 7 7 7 7 6 5 5 4 5 6 8 9 9 10 11 11 12 12 12 12 12 13 13 14 14 13 13 13 13 13 13 12 12 11 10 10 9 9 8
8 6 5 5 5 6 6 6 7 6 5 5 4 5 6 7 8 9 10 10 11 11 11 12 12 12 13 13 14 13 13 13 13 13 13 12 12 12 11 10 10 9 9 9
8 7 6 5 6 6 6 6 6 6 5 5 5 5 6 7 8 9 9 9 10 10 11 11 11 12 13 13 13 13 13 13 13 13 12 12 11 11 11 10 10 10 9 9
7 6 5 5 5 5 5 5 5 5 5 5 5 6 7 8 8 8 8 8 9 9 10 11 11 12 13 13 13 13 13 13 13 12 12 11 11 10 10 10 10 10 9 9
6 5 5 4 4 4 4 5 5 5 5 5 6 6 7 8 8 7 8 8 9 9 10 11 12 13 13 13 13 13 13 13 12 12 12 11 10 10 10 10 9 9 9 8
4 4 4 4 4 4 4 5 5 5 6 6 7 7 7 7 7 7 8 9 9 10 11 12 12 13 13 13 13 13 12 12 12 12 11 10 10 10 10 9 9 8 8 8
5 5 4 4 4 4 5 5 6 6 7 7 7 7 7 7 6 7 8 9 10 10 11 12 13 13 13 13 13 13 12 12 12 11 11 10 10 10 9 8 8 7 7 7
5 5 5 4 4 4 5 6 7 7 7 7 7 7 6 6 6 7 9 10 10 11 12 12 13 13 13 13 13 13 12 12 12 11 10 10 10 9 8 7 7 7 7 7
5 5 4 4 3 4 5 6 6 6 6 7 7 6 6 6 7 8 9 9 10 11 12 12 13 13 13 13 13 13 12 12 11 11 10 9 9 8 7 7 6 6 6 6
4 4 4 4 4 4 5 5 5 6 6 6 7 7 6 7 7 8 9 9 10 11 12 12 12 13 13 13 13 12 12 11 11 10 10 9 8 7 6 6 6 6 6 6
4 5 5 5 4 4 5 5 5 5 6 6 7 7 7 7 7 8 8 10 11 11 11 12 12 12 13 13 13 12 12 11 11 10 9 8 7 6 6 6 6 6 6 6
5 5 5 5 6 5 5 5 5 6 6 7 7 7 6 6 7 7 8 10 10 11 11 12 12 12 12 13 13 12 12 11 11 10 9 8 8 7 6 6 5 6 6 6
6 6 6 6 6 6 6 6 6 7 7 7 7 6 6 6 7 7 9 10 10 11 12 12 12 12 12 12 12 12 12 11 11 10 9 9 8 8 7 6 6 6 6 7
6 6 6 6 6 7 7 7 7 7 7 7 6 6 6 6 7 8 9 10 10 11 12 12 12 12 12 12 12 12 12 12 11 9 9 9 9 8 7 6 6 6 7 7